AirNav   ProFlight Series 2 Aviation Headset
 
 1023 users online  

32FA Sunset Strip Airpark
Okeechobee, Florida, USA

GOING TO OKEECHOBEE?


FAA INFORMATION EFFECTIVE 16 JULY 2020

Location

FAA Identifier: 32FA
Lat/Long: 27-14-03.1660N 080-54-13.2240W
27-14.052767N 080-54.220400W
27.2342128,-80.9036733
(estimated)
Elevation: 34 ft. / 10 m (estimated)
Variation: 03W (1985)
From city: 3 miles W of OKEECHOBEE, FL
Time zone: UTC -4 (UTC -5 during Standard Time)
Zip code: 34974

Airport Operations

Airport use: Private use. Permission required prior to landing
Activation date: 07/1977
Control tower: no
ARTCC: MIAMI CENTER
FSS: SAINT PETERSBURG FLIGHT SERVICE STATION
Attendance: UNATNDD
Wind indicator: yes
Segmented circle: no

Airport Communications

WX AWOS-3 at OBE (3 nm NE): 118.675 (863-467-1148)

Nearby radio navigation aids

VOR radial/distance  VOR name  Freq  Var
PHKr337/29.4PAHOKEE VOR/DME115.4000E
TRVr227/34.6TREASURE VORTAC117.3007W
LBVr046/35.7LA BELLE VORTAC110.4001E

 
NDB name  Hdg/Dist  Freq  Var  ID
FORT PIERCE249/32.127507WFPR ..-. .--. .-.
UNITED308/36.140505WUTX ..- - -..-

Airport Services

Runway Information

Runway 8/26

Dimensions: 5000 x 100 ft. / 1524 x 30 m
Surface: turf
RUNWAY 8  RUNWAY 26
Traffic pattern: rightleft

Airport Ownership and Management from official FAA records

Ownership: Privately-owned
Owner: SUNSET STRIP AIRPARK INC
PO BOX 92
OKEECHOBEE, FL 34972
Phone 863-467-5808
Manager: EDDIE MATCHETT
SUNSET STRIP AIRPARK INC, PO BOX 92
OKEECHOBEE, FL 34972
Phone 863-467-5808

Airport Operational Statistics

Aircraft based on the field: 5
Single engine airplanes: 3
Multi engine airplanes: 2
    

Additional Remarks

FOR CD CTC MIAMI ARTCC AT 305-716-1731.

Instrument Procedures

There are no published instrument procedures at 32FA.

Some nearby airports with instrument procedures:

KOBE - Okeechobee County Airport (3 nm NE)
KSEF - Sebring Regional Airport (27 nm NW)
KPHK - Palm Beach County Glades Airport (29 nm SE)
2IS - Airglades Airport (31 nm S)
KFPR - Treasure Coast International Airport (32 nm NE)
 
Loc | Ops | Rwys | IFR | FBO | Links
Com | Nav | Svcs | Stats | Notes


 
Area around 32FA (Sunset Strip Airpark)
 
Road maps at: MapQuest Bing Google
 
Aerial photo
WARNING: Photo may not be current or correct
Aerial photo of 32FA (Sunset Strip Airpark)
Do you have a better or more recent aerial photo of Sunset Strip Airpark that you would like to share? If so, please send us your photo.

 
Sectional chart

 
Airport distance calculator
Flying to Sunset Strip Airpark? Find the distance to fly.

From to 32FA

Sunrise and sunset
Times for 09-Aug-2020
 Local
(UTC-4)
 Zulu
(UTC)
Morning civil twilight06:2810:28
Sunrise06:5310:53
Sunset20:0500:05
Evening civil twilight20:2900:29

Current date and time
Zulu (UTC)  09-Aug-2020 23:37:07
Local (UTC-4)  09-Aug-2020 19:37:07
 
METAR
KOBE 
3nm NE 
092315Z AUTO 00000KT 10SM CLR 30/24 A3009 RMK AO2 LTG DSNT W
TAF
KFPR 
32nm NE 
091724Z 0918/1018 09010KT P6SM FEW025 SCT090 SCT250 TEMPO 0918/0920 BKN090 BKN250 FM100000 VRB04KT P6SM FEW025 SCT250 FM101500 11007KT P6SM VCSH SCT030 SCT250
KVRB 
36nm NE 
091724Z 0918/1018 09010KT P6SM FEW030 FEW070 FEW250 FM100100 VRB05KT P6SM FEW025 SCT250 FM101500 11007KT P6SM SCT030 SCT250
KSUA 
37nm E 
091724Z 0918/1018 06010KT P6SM VCTS SCT025CB BKN035 TEMPO 0918/0919 6SM -TSRA FM092000 09010KT P6SM SCT030 SCT250 FM100000 VRB04KT P6SM FEW025 SCT250 FM101500 11007KT P6SM VCSH SCT030 SCT250
NOTAMs
Click for the latest NOTAMs
NOTAMs are issued by the DoD/FAA and will open in a separate window not controlled by AirNav.

 

 
 

Would you like to see your business listed on this page?

 If your business provides an interesting product or service to pilots, flight crews, aircraft, or users of the Sunset Strip Airpark, you should consider listing it here.  To start the listing process, click on the button below
 
Add a business
 

Other Pages about Sunset Strip Airpark

Update a link
 
Copyright © AirNav, LLC. All rights reserved. Privacy Policy  Contact